Location: Chervonnoye
(48.6000°N, 34.4000°E)
Time: 05:40:55
(UTC+00:00)

Meteor 1-20 Rocket - Pass Details

Date: 23 November 2020
Orbit: 819 x 892 km, 81.2° (Epoch: 18 January)

Event Time Altitude Azimuth Distance (km) Brightness Sun altitude
Rises 15:35:30 0° 350° (N) 3,508 7.4 -16.3°
Reaches altitude 10° 15:38:00 10° 354° (N) 2,569 6.6 -16.7°
Maximum altitude 15:43:48 60° 75° (ENE) 1,017 4.3 -17.6°
Drops below altitude 10° 15:49:34 10° 155° (SSE) 2,552 6.5 -18.6°
Sets 15:52:02 0° 159° (SSE) 3,483 7.3 -19.0°
